Home > Weather > Moose Jaw > Past weeks

Flag for Canada Weather for the Past 2 Weeks in Moose Jaw, Saskatchewan, Canada

Now
18 °F

Clear.


Feels Like: 6 °F
Forecast: 18 / 33 °F
Wind: 10 mph from Northwest

Location: Regina Weather Station

Current Time: Feb 8, 2016 at 2:35:45 AM

Latest Report: Feb 8, 2016 at 2:00 AM


Visibility: 15 mi

Pressure: 30.42 "Hg (28.30 "Hg at 560m altitude)

Humidity: 93%

Dew point: 16 °F

Location of Moose JawLocation

Historic Weather in Moose Jaw — Graph

°F

Moose Jaw Temperature Yesterday

Maximum temperature yesterday: 34 °F (at 12:00 AM)
Minimum temperature yesterday: 21 °F (at 11:00 PM)
Average temperature yesterday: 28 °F

High & Low Weather Summary for the Past Weeks

 TemperatureHumidityPressure
High45 °F (Feb 6, 12:00 PM)100% (Jan 24, 7:00 AM)30.41 "Hg (Jan 24, 7:00 AM)
Low5 °F (Feb 2, 8:00 AM)57% (Feb 6, 12:00 PM)29.36 "Hg (Jan 29, 1:00 AM)
Average23 °F86%29.94 "Hg
* Reported Jan 24 1:00 AM — Feb 8 1:00 AM, Moose Jaw, Weather by CustomWeather, © 2016

Note: Actual official high and low records may vary slightly from our data, if they occured in-between our weather recording intervals... More about our weather records

Advertising

Moose Jaw Weather History for the Previous 24 Hours

 ConditionsComfort  
Time TempWeatherWind HumidityBarometerVisibility
1:00 AM
Mon, Feb 8
18 °FClear.8 mph93%30.40 "Hg15 mi
12:00 AM21 °FClear.14 mph86%30.41 "Hg15 mi
11:00 PM
Sun, Feb 7
21 °FClear.12 mph86%30.40 "Hg15 mi
10:00 PM23 °FClear.13 mph86%30.40 "Hg15 mi
9:00 PM25 °FClear.16 mph80%30.39 "Hg15 mi
8:00 PM25 °FPassing clouds.16 mph80%30.40 "Hg15 mi
7:00 PM27 °FPassing clouds.21 mph74%30.37 "Hg15 mi
6:00 PM28 °FPassing clouds.20 mph69%30.36 "Hg15 mi
5:00 PM30 °FPassing clouds.25 mph64%30.32 "Hg15 mi
4:00 PM32 °FScattered clouds.31 mph60%30.31 "Hg15 mi
3:00 PM30 °FScattered clouds.30 mph69%30.26 "Hg15 mi
2:00 PM30 °FPassing clouds.35 mph69%30.24 "Hg15 mi
1:00 PM30 °FPassing clouds.32 mph69%30.23 "Hg15 mi
12:00 PM30 °FPassing clouds.31 mph64%30.22 "Hg15 mi
11:00 AM28 °FPartly sunny.29 mph69%30.19 "Hg15 mi
10:00 AM25 °FPartly sunny.32 mph80%30.16 "Hg15 mi
9:00 AM23 °FPartly sunny.18 mph86%30.13 "Hg15 mi
8:00 AM25 °FOvercast.22 mph80%30.09 "Hg15 mi
7:00 AM25 °FOvercast.33 mph74%30.05 "Hg15 mi
6:00 AM25 °FLight snow. Passing clouds.30 mph80%29.99 "Hg10 mi
5:04 AM25 °FLight snow. Passing clouds.35 mph80%29.94 "Hg15 mi
4:00 AM28 °FLight snow. Overcast.38 mph74%29.87 "Hg15 mi
3:00 AM30 °FLight snow. Overcast.33 mph75%29.82 "Hg15 mi
2:00 AM32 °FLight snow. Overcast.31 mph80%29.77 "Hg15 mi
Weather by CustomWeather, © 2016

See weather overviewHow to use our weather pages